RYR897Q LEZL-LHBP

Flight info

Callsign RYR897Q
Flight time 2h 46m
Altitude 36000
Route HIJ DCT DILAV DCT PORBU DCT VAMTU DCT SOVOX DCT DIMLO DCT ULZAK
Aircraft B738/M-SDE2E3FGHIRWXY/LB1

Departure

Time 2026-04-20 16:32
Airport Seville Airport (LEZL)

Arrival

Time 2026-04-20 19:18
Airport Budapest Liszt Ferenc International Airport (LHBP)
Time Latitude Longitude Altitude Speed Heading
2026-04-20 16:04 37.42152 -5.90027 91 ft 0 kts 315°
2026-04-20 16:21 37.42142 -5.90015 90 ft 2 kts 314°
2026-04-20 16:22 37.42131 -5.90002 90 ft 2 kts 330°
2026-04-20 16:22 37.42117 -5.89995 90 ft 2 kts 345°
2026-04-20 16:22 37.42102 -5.89993 90 ft 2 kts
2026-04-20 16:22 37.42087 -5.89996 89 ft 2 kts 19°
2026-04-20 16:23 37.42073 -5.90004 89 ft 2 kts 37°
2026-04-20 16:23 37.42063 -5.90017 89 ft 2 kts 53°
2026-04-20 16:23 37.42055 -5.90034 89 ft 2 kts 70°
2026-04-20 16:23 37.42052 -5.90052 89 ft 1 kts 86°
2026-04-20 16:24 37.42052 -5.90060 89 ft 1 kts 92°
2026-04-20 16:24 37.42052 -5.90063 89 ft 0 kts 91°
2026-04-20 16:25 37.42051 -5.90057 89 ft 3 kts 91°
2026-04-20 16:26 37.42050 -5.89979 89 ft 15 kts 90°
2026-04-20 16:26 37.41980 -5.89835 90 ft 22 kts 101°
2026-04-20 16:26 37.41979 -5.89649 90 ft 20 kts 89°
2026-04-20 16:26 37.41980 -5.89472 91 ft 19 kts 90°
2026-04-20 16:27 37.41979 -5.89304 91 ft 20 kts 91°
2026-04-20 16:27 37.41978 -5.89107 91 ft 24 kts 90°
2026-04-20 16:27 37.41979 -5.88878 91 ft 28 kts 87°
2026-04-20 16:27 37.41984 -5.88621 94 ft 29 kts 90°
2026-04-20 16:28 37.41981 -5.88373 97 ft 26 kts 89°
2026-04-20 16:28 37.41983 -5.88150 101 ft 23 kts 90°
2026-04-20 16:28 37.41984 -5.87939 102 ft 25 kts 89°
2026-04-20 16:28 37.41985 -5.87714 104 ft 25 kts 90°
2026-04-20 16:29 37.41978 -5.87519 107 ft 16 kts 100°
2026-04-20 16:29 37.41921 -5.87439 107 ft 9 kts 152°
2026-04-20 16:29 37.41909 -5.87432 107 ft 0 kts 158°
2026-04-20 16:30 37.41853 -5.87435 107 ft 15 kts 202°
2026-04-20 16:30 37.41797 -5.87535 106 ft 0 kts 271°
2026-04-20 16:31 37.41797 -5.87536 106 ft 0 kts 271°
2026-04-20 16:31 37.41797 -5.87542 106 ft 4 kts 271°
2026-04-20 16:32 37.41797 -5.87875 101 ft 74 kts 270°
2026-04-20 16:32 37.41794 -5.88804 91 ft 136 kts 269°
2026-04-20 16:32 37.41795 -5.90205 215 ft 172 kts 270°
2026-04-20 16:32 37.41826 -5.91715 813 ft 176 kts 271°
2026-04-20 16:33 37.42093 -5.93258 1251 ft 191 kts 296°
2026-04-20 16:33 37.43041 -5.94484 1703 ft 206 kts 335°
2026-04-20 16:33 37.44500 -5.94763 2133 ft 222 kts 10°
2026-04-20 16:33 37.45966 -5.94053 2654 ft 235 kts 32°
2026-04-20 16:34 37.47369 -5.92898 3221 ft 249 kts 35°
2026-04-20 16:34 37.48842 -5.91651 3902 ft 260 kts 34°
2026-04-20 16:34 37.50397 -5.90384 4529 ft 272 kts 33°
2026-04-20 16:34 37.52026 -5.89092 5334 ft 278 kts 32°
2026-04-20 16:35 37.53658 -5.87809 6176 ft 280 kts 32°
2026-04-20 16:35 37.55327 -5.86498 6990 ft 285 kts 31°
2026-04-20 16:35 37.57010 -5.85173 7831 ft 287 kts 31°
2026-04-20 16:35 37.58695 -5.83845 8642 ft 290 kts 31°
2026-04-20 16:36 37.60405 -5.82496 9424 ft 293 kts 31°
2026-04-20 16:36 37.62141 -5.81124 10195 ft 297 kts 31°
2026-04-20 16:36 37.63933 -5.79708 10728 ft 310 kts 31°
2026-04-20 16:36 37.65812 -5.78224 11147 ft 326 kts 31°
2026-04-20 16:37 37.67787 -5.76663 11583 ft 341 kts 31°
2026-04-20 16:37 37.69859 -5.75023 11982 ft 357 kts 31°
2026-04-20 16:37 37.72014 -5.73317 12358 ft 373 kts 31°
2026-04-20 16:37 37.74240 -5.71552 12749 ft 388 kts 31°
2026-04-20 16:38 37.76593 -5.69686 13102 ft 404 kts 31°
2026-04-20 16:38 37.79047 -5.67737 13529 ft 416 kts 31°
2026-04-20 16:38 37.81503 -5.65784 14149 ft 423 kts 31°
2026-04-20 16:38 37.84007 -5.63791 14831 ft 428 kts 31°
2026-04-20 16:39 37.86565 -5.61754 15524 ft 433 kts 31°
2026-04-20 16:39 37.89100 -5.59734 16197 ft 438 kts 31°
2026-04-20 16:39 37.91702 -5.57659 16835 ft 443 kts 32°
2026-04-20 16:39 37.94335 -5.55557 17494 ft 447 kts 32°
2026-04-20 16:40 37.96977 -5.53446 18119 ft 451 kts 32°
2026-04-20 16:40 37.99672 -5.51291 18749 ft 456 kts 31°
2026-04-20 16:40 38.02361 -5.49140 19342 ft 460 kts 31°
2026-04-20 16:40 38.05083 -5.46961 19927 ft 465 kts 31°
2026-04-20 16:41 38.07819 -5.44768 20542 ft 468 kts 31°
2026-04-20 16:41 38.10608 -5.42532 21104 ft 473 kts 31°
2026-04-20 16:41 38.13408 -5.40283 21662 ft 477 kts 31°
2026-04-20 16:41 38.16229 -5.38016 22206 ft 481 kts 31°
2026-04-20 16:42 38.19038 -5.35757 22725 ft 485 kts 31°
2026-04-20 16:42 38.21920 -5.33437 23250 ft 489 kts 31°
2026-04-20 16:42 38.24787 -5.31126 23749 ft 493 kts 32°
2026-04-20 16:42 38.27747 -5.28738 24238 ft 497 kts 32°
2026-04-20 16:43 38.30649 -5.26395 24721 ft 501 kts 32°
2026-04-20 16:43 38.33625 -5.23988 25194 ft 504 kts 32°
2026-04-20 16:43 38.36637 -5.21549 25823 ft 503 kts 32°
2026-04-20 16:43 38.39578 -5.19166 26554 ft 500 kts 32°
2026-04-20 16:44 38.42495 -5.16798 27157 ft 499 kts 32°
2026-04-20 16:44 38.45423 -5.14417 27742 ft 498 kts 32°
2026-04-20 16:44 38.48283 -5.11854 28295 ft 498 kts 37°
2026-04-20 16:44 38.50919 -5.08917 28846 ft 498 kts 45°
2026-04-20 16:45 38.53214 -5.05628 29352 ft 498 kts 51°
2026-04-20 16:45 38.55307 -5.02117 29835 ft 498 kts 54°
2026-04-20 16:45 38.57290 -4.98504 30479 ft 494 kts 56°
2026-04-20 16:45 38.59209 -4.94883 31034 ft 492 kts 56°
2026-04-20 16:46 38.61124 -4.91219 31516 ft 491 kts 56°
2026-04-20 16:46 38.63016 -4.87588 31977 ft 490 kts 56°
2026-04-20 16:46 38.64921 -4.83939 32401 ft 490 kts 56°
2026-04-20 16:46 38.66822 -4.80313 32847 ft 488 kts 56°
2026-04-20 16:47 38.68711 -4.76724 33264 ft 488 kts 56°
2026-04-20 16:47 38.70617 -4.73112 33668 ft 487 kts 56°
2026-04-20 16:47 38.72514 -4.69527 34055 ft 486 kts 56°
2026-04-20 16:47 38.74437 -4.65897 34374 ft 486 kts 56°
2026-04-20 16:48 38.76354 -4.62280 34753 ft 485 kts 56°
2026-04-20 16:48 38.78251 -4.58702 35132 ft 484 kts 56°
2026-04-20 16:48 38.80154 -4.55108 35462 ft 484 kts 56°
2026-04-20 16:48 38.82048 -4.51527 35804 ft 482 kts 56°
2026-04-20 16:49 38.83947 -4.47935 35945 ft 484 kts 56°
2026-04-20 16:49 38.85831 -4.44367 35949 ft 484 kts 56°
2026-04-20 16:49 38.89628 -4.37162 35949 ft 484 kts 56°
2026-04-20 16:50 38.93421 -4.29951 35947 ft 490 kts 56°
2026-04-20 16:50 38.97239 -4.22677 35946 ft 493 kts 56°
2026-04-20 16:51 39.01070 -4.15357 35946 ft 492 kts 56°
2026-04-20 16:51 39.04919 -4.07991 35952 ft 493 kts 56°
2026-04-20 16:52 39.08726 -4.00686 35958 ft 493 kts 56°
2026-04-20 16:52 39.12557 -3.93315 35963 ft 493 kts 56°
2026-04-20 16:53 39.16389 -3.85923 35965 ft 494 kts 56°
2026-04-20 16:53 39.20182 -3.78592 35971 ft 494 kts 56°
2026-04-20 16:54 39.24010 -3.71177 35971 ft 494 kts 56°
2026-04-20 16:54 39.27828 -3.63767 35964 ft 495 kts 56°
2026-04-20 16:55 39.31636 -3.56361 35966 ft 495 kts 56°
2026-04-20 16:55 39.35469 -3.48888 35965 ft 495 kts 56°
2026-04-20 16:56 39.39266 -3.41471 35968 ft 495 kts 56°
2026-04-20 16:56 39.43082 -3.33995 35969 ft 496 kts 57°
2026-04-20 16:57 39.46883 -3.26537 35964 ft 496 kts 57°
2026-04-20 16:57 39.50681 -3.19068 35967 ft 496 kts 56°
2026-04-20 16:58 39.54516 -3.11502 35973 ft 497 kts 56°
2026-04-20 16:58 39.58314 -3.03991 35973 ft 497 kts 56°
2026-04-20 16:59 39.62114 -2.96456 35977 ft 496 kts 56°
2026-04-20 16:59 39.65889 -2.88956 35986 ft 497 kts 56°
2026-04-20 17:00 39.71574 -2.77624 35989 ft 497 kts 56°
2026-04-20 17:01 39.75330 -2.70117 35991 ft 496 kts 56°
2026-04-20 17:01 39.79081 -2.62601 35999 ft 495 kts 56°
2026-04-20 17:02 39.82846 -2.55040 36011 ft 496 kts 56°
2026-04-20 17:02 39.86625 -2.47430 36015 ft 496 kts 56°
2026-04-20 17:03 39.90360 -2.39894 36015 ft 495 kts 56°
2026-04-20 17:03 39.94117 -2.32295 36020 ft 495 kts 56°
2026-04-20 17:04 39.97862 -2.24702 36019 ft 497 kts 56°
2026-04-20 17:04 40.01584 -2.17138 36025 ft 496 kts 56°
2026-04-20 17:05 40.05319 -2.09529 36039 ft 496 kts 56°
2026-04-20 17:05 40.09067 -2.01874 36052 ft 497 kts 56°
2026-04-20 17:06 40.12804 -1.94222 36054 ft 497 kts 56°
2026-04-20 17:06 40.16518 -1.86597 36063 ft 497 kts 56°
2026-04-20 17:07 40.20245 -1.78932 36061 ft 497 kts 56°
2026-04-20 17:07 40.23973 -1.71244 36073 ft 497 kts 56°
2026-04-20 17:08 40.27676 -1.63586 36079 ft 497 kts 56°
2026-04-20 17:08 40.31401 -1.55865 36078 ft 498 kts 56°
2026-04-20 17:09 40.35106 -1.48169 36074 ft 498 kts 56°
2026-04-20 17:09 40.38821 -1.40428 36062 ft 497 kts 56°
2026-04-20 17:10 40.42523 -1.32697 36047 ft 498 kts 56°
2026-04-20 17:10 40.46207 -1.24989 36044 ft 498 kts 57°
2026-04-20 17:11 40.49907 -1.17223 36191 ft 494 kts 57°
2026-04-20 17:11 40.51731 -1.13387 35984 ft 495 kts 56°
2026-04-20 17:11 40.53564 -1.09529 36034 ft 498 kts 56°
2026-04-20 17:12 40.57252 -1.01754 36040 ft 500 kts 56°
2026-04-20 17:12 40.60931 -0.93977 36039 ft 499 kts 56°
2026-04-20 17:13 40.64597 -0.86207 36051 ft 500 kts 56°
2026-04-20 17:13 40.68279 -0.78384 36054 ft 498 kts 56°
2026-04-20 17:14 40.71915 -0.70624 36050 ft 498 kts 56°
2026-04-20 17:14 40.75567 -0.62794 36043 ft 500 kts 56°
2026-04-20 17:15 40.79215 -0.54951 36028 ft 498 kts 56°
2026-04-20 17:15 40.82851 -0.47118 36014 ft 498 kts 56°
2026-04-20 17:16 40.86476 -0.39289 35998 ft 499 kts 56°
2026-04-20 17:16 40.90103 -0.31436 35976 ft 498 kts 57°
2026-04-20 17:17 40.93698 -0.23630 35956 ft 500 kts 56°
2026-04-20 17:17 40.97313 -0.15758 35951 ft 498 kts 56°
2026-04-20 17:18 41.00909 -0.07909 35948 ft 499 kts 56°
2026-04-20 17:18 41.04521 -0.00007 35947 ft 498 kts 56°
2026-04-20 17:19 41.08110 0.07866 35931 ft 498 kts 56°
2026-04-20 17:19 41.11682 0.15718 35927 ft 498 kts 56°
2026-04-20 17:20 41.15239 0.23559 35916 ft 499 kts 56°
2026-04-20 17:20 41.18813 0.31461 35910 ft 498 kts 56°
2026-04-20 17:21 41.22368 0.39339 35899 ft 497 kts 56°
2026-04-20 17:21 41.25911 0.47212 35890 ft 497 kts 56°
2026-04-20 17:22 41.29461 0.55122 35898 ft 496 kts 56°
2026-04-20 17:22 41.32978 0.62976 35911 ft 497 kts 56°
2026-04-20 17:23 41.36496 0.70854 35924 ft 495 kts 57°
2026-04-20 17:23 41.40002 0.78726 35934 ft 495 kts 57°
2026-04-20 17:24 41.43505 0.86611 35936 ft 496 kts 57°
2026-04-20 17:24 41.47019 0.94543 35941 ft 494 kts 57°
2026-04-20 17:25 41.50503 1.02428 35941 ft 494 kts 57°
2026-04-20 17:25 41.53974 1.10303 35941 ft 493 kts 57°
2026-04-20 17:26 41.57431 1.18169 35948 ft 492 kts 56°
2026-04-20 17:26 41.59176 1.22145 36179 ft 494 kts 56°
2026-04-20 17:26 41.60902 1.26083 35955 ft 489 kts 56°
2026-04-20 17:27 41.64305 1.33869 35946 ft 489 kts 56°
2026-04-20 17:27 41.67746 1.41758 35954 ft 487 kts 56°
2026-04-20 17:28 41.71148 1.49573 35954 ft 487 kts 57°
2026-04-20 17:28 41.74545 1.57403 35951 ft 487 kts 56°
2026-04-20 17:29 41.77916 1.65192 35946 ft 483 kts 57°
2026-04-20 17:29 41.81288 1.73004 35950 ft 484 kts 57°
2026-04-20 17:30 41.84639 1.80785 35953 ft 482 kts 57°
2026-04-20 17:30 41.87989 1.88584 35955 ft 481 kts 57°
2026-04-20 17:31 41.91309 1.96338 35961 ft 480 kts 57°
2026-04-20 17:31 41.94634 2.04121 35965 ft 480 kts 57°
2026-04-20 17:32 41.97923 2.11833 35956 ft 478 kts 57°
2026-04-20 17:32 42.01234 2.19615 35954 ft 480 kts 57°
2026-04-20 17:33 42.04546 2.27424 35741 ft 481 kts 57°
2026-04-20 17:33 42.06191 2.31320 35943 ft 479 kts 57°
2026-04-20 17:33 42.07808 2.35156 35949 ft 482 kts 57°
2026-04-20 17:34 42.11142 2.43062 35956 ft 486 kts 57°
2026-04-20 17:34 42.14451 2.50923 35950 ft 487 kts 57°
2026-04-20 17:35 42.17781 2.58866 35948 ft 488 kts 57°
2026-04-20 17:35 42.21101 2.66809 35947 ft 489 kts 58°
2026-04-20 17:36 42.24445 2.74822 35951 ft 491 kts 58°
2026-04-20 17:36 42.27774 2.82829 35947 ft 492 kts 58°
2026-04-20 17:37 42.31136 2.90935 35932 ft 493 kts 58°
2026-04-20 17:37 42.34461 2.98977 35927 ft 496 kts 58°
2026-04-20 17:38 42.37802 3.07078 35926 ft 495 kts 58°
2026-04-20 17:38 42.41146 3.15207 35923 ft 496 kts 58°
2026-04-20 17:39 42.44503 3.23376 35921 ft 496 kts 58°
2026-04-20 17:39 42.47866 3.31465 35915 ft 497 kts 58°
2026-04-20 17:40 42.51279 3.39648 35913 ft 498 kts 58°
2026-04-20 17:40 42.54674 3.47811 35913 ft 498 kts 57°
2026-04-20 17:41 42.58061 3.55986 35914 ft 498 kts 57°
2026-04-20 17:41 42.61441 3.64174 35912 ft 499 kts 57°
2026-04-20 17:42 42.64853 3.72470 35915 ft 500 kts 58°
2026-04-20 17:42 42.68234 3.80714 35911 ft 500 kts 58°
2026-04-20 17:43 42.71629 3.89016 35913 ft 501 kts 58°
2026-04-20 17:43 42.75008 3.97302 35909 ft 501 kts 58°
2026-04-20 17:44 42.78380 4.05601 35911 ft 500 kts 58°
2026-04-20 17:44 42.81750 4.13916 35910 ft 501 kts 58°
2026-04-20 17:45 42.85115 4.22241 35909 ft 501 kts 58°
2026-04-20 17:45 42.88466 4.30557 35901 ft 501 kts 58°
2026-04-20 17:46 42.91821 4.38904 35904 ft 501 kts 58°
2026-04-20 17:46 42.95172 4.47266 35904 ft 501 kts 58°
2026-04-20 17:47 42.98505 4.55607 35905 ft 501 kts 58°
2026-04-20 17:47 43.01814 4.63910 35906 ft 501 kts 58°
2026-04-20 17:48 43.05136 4.72272 35904 ft 500 kts 58°
2026-04-20 17:48 43.08467 4.80680 35903 ft 501 kts 58°
2026-04-20 17:49 43.11779 4.89068 35900 ft 501 kts 58°
2026-04-20 17:49 43.15066 4.97419 35897 ft 500 kts 58°
2026-04-20 17:50 43.18359 5.05803 35899 ft 500 kts 58°
2026-04-20 17:50 43.21629 5.14154 35898 ft 500 kts 58°
2026-04-20 17:51 43.24916 5.22574 35896 ft 500 kts 58°
2026-04-20 17:51 43.28180 5.30961 35891 ft 500 kts 58°
2026-04-20 17:52 43.31474 5.39448 35896 ft 500 kts 58°
2026-04-20 17:52 43.34734 5.47873 35894 ft 500 kts 58°
2026-04-20 17:53 43.37992 5.56318 35893 ft 500 kts 58°
2026-04-20 17:53 43.41247 5.64781 35895 ft 500 kts 58°
2026-04-20 17:54 43.44508 5.73287 35894 ft 500 kts 59°
2026-04-20 17:54 43.47736 5.81730 35889 ft 500 kts 59°
2026-04-20 17:55 43.50968 5.90210 35889 ft 500 kts 59°
2026-04-20 17:55 43.54193 5.98696 35885 ft 501 kts 59°
2026-04-20 17:56 43.57397 6.07151 35886 ft 498 kts 59°
2026-04-20 17:56 43.60623 6.15689 35895 ft 501 kts 59°
2026-04-20 17:57 43.63817 6.24167 35904 ft 500 kts 59°
2026-04-20 17:57 43.67030 6.32727 35925 ft 499 kts 59°
2026-04-20 17:58 43.70206 6.41211 35929 ft 500 kts 59°
2026-04-20 17:58 43.73391 6.49745 35930 ft 500 kts 59°
2026-04-20 17:59 43.76582 6.58324 35944 ft 499 kts 59°
2026-04-20 17:59 43.79735 6.66824 35949 ft 499 kts 59°
2026-04-20 18:00 43.82904 6.75390 35955 ft 500 kts 59°
2026-04-20 18:00 43.86053 6.83934 35946 ft 499 kts 59°
2026-04-20 18:01 43.89187 6.92462 35946 ft 499 kts 59°
2026-04-20 18:01 43.92332 7.01049 35949 ft 498 kts 59°
2026-04-20 18:02 43.95467 7.09631 35954 ft 499 kts 59°
2026-04-20 18:02 43.98581 7.18183 35958 ft 499 kts 59°
2026-04-20 18:03 44.01715 7.26813 35959 ft 499 kts 59°
2026-04-20 18:03 44.04828 7.35418 35965 ft 499 kts 59°
2026-04-20 18:04 44.07954 7.44083 35943 ft 502 kts 59°
2026-04-20 18:04 44.11053 7.52701 35946 ft 500 kts 59°
2026-04-20 18:05 44.15694 7.65690 35941 ft 501 kts 60°
2026-04-20 18:05 44.18713 7.74462 35947 ft 503 kts 61°
2026-04-20 18:06 44.21674 7.83246 35937 ft 502 kts 60°
2026-04-20 18:06 44.24622 7.92028 35932 ft 503 kts 60°
2026-04-20 18:07 44.27570 8.00801 35923 ft 503 kts 60°
2026-04-20 18:07 44.30535 8.09628 35913 ft 504 kts 60°
2026-04-20 18:08 44.33498 8.18469 35916 ft 503 kts 60°
2026-04-20 18:08 44.36453 8.27317 35912 ft 504 kts 60°
2026-04-20 18:09 44.39402 8.36171 35903 ft 504 kts 60°
2026-04-20 18:09 44.42334 8.45010 35904 ft 503 kts 60°
2026-04-20 18:10 44.45272 8.53899 35904 ft 504 kts 60°
2026-04-20 18:10 44.48198 8.62779 35903 ft 504 kts 60°
2026-04-20 18:11 44.51085 8.71572 35909 ft 505 kts 61°
2026-04-20 18:11 44.54005 8.80490 35916 ft 504 kts 61°
2026-04-20 18:12 44.56913 8.89395 35908 ft 504 kts 61°
2026-04-20 18:12 44.59817 8.98323 35908 ft 505 kts 61°
2026-04-20 18:13 44.62733 9.07311 35914 ft 505 kts 61°
2026-04-20 18:13 44.65634 9.16287 35903 ft 505 kts 60°
2026-04-20 18:14 44.68508 9.25211 35905 ft 505 kts 60°
2026-04-20 18:14 44.71378 9.34161 35900 ft 506 kts 60°
2026-04-20 18:15 44.74252 9.43165 35897 ft 506 kts 60°
2026-04-20 18:15 44.77122 9.52184 35902 ft 507 kts 60°
2026-04-20 18:16 44.80001 9.61253 35904 ft 506 kts 60°
2026-04-20 18:16 44.82845 9.70233 35905 ft 508 kts 61°
2026-04-20 18:17 44.85737 9.79402 35890 ft 509 kts 61°
2026-04-20 18:17 44.88626 9.88603 35887 ft 508 kts 61°
2026-04-20 18:18 44.91481 9.97727 35892 ft 508 kts 61°
2026-04-20 18:18 44.94339 10.06892 35890 ft 508 kts 61°
2026-04-20 18:19 44.97182 10.16035 35881 ft 509 kts 60°
2026-04-20 18:19 45.00032 10.25238 35884 ft 509 kts 60°
2026-04-20 18:20 45.02858 10.34395 35883 ft 508 kts 60°
2026-04-20 18:20 45.05661 10.43507 35884 ft 509 kts 60°
2026-04-20 18:21 45.08475 10.52695 35887 ft 508 kts 60°
2026-04-20 18:21 45.11267 10.61848 35888 ft 508 kts 60°
2026-04-20 18:22 45.14010 10.70858 35891 ft 508 kts 62°
2026-04-20 18:22 45.16801 10.80064 35896 ft 508 kts 62°
2026-04-20 18:23 45.19577 10.89252 35897 ft 507 kts 61°
2026-04-20 18:23 45.22318 10.98354 35897 ft 509 kts 62°
2026-04-20 18:24 45.25090 11.07592 35895 ft 508 kts 61°
2026-04-20 18:24 45.27842 11.16796 35897 ft 508 kts 61°
2026-04-20 18:25 45.30587 11.26018 35899 ft 508 kts 62°
2026-04-20 18:25 45.33316 11.35223 35903 ft 508 kts 61°
2026-04-20 18:26 45.36064 11.44519 35903 ft 508 kts 62°
2026-04-20 18:26 45.38778 11.53741 35897 ft 509 kts 61°
2026-04-20 18:27 45.41517 11.63083 35900 ft 508 kts 61°
2026-04-20 18:27 45.44161 11.72131 35905 ft 510 kts 62°
2026-04-20 18:28 45.46874 11.81450 35905 ft 509 kts 62°
2026-04-20 18:28 45.49574 11.90763 35907 ft 508 kts 62°
2026-04-20 18:29 45.52232 11.99966 35909 ft 507 kts 62°
2026-04-20 18:29 45.54903 12.09240 35909 ft 509 kts 62°
2026-04-20 18:30 45.57578 12.18565 35904 ft 506 kts 62°
2026-04-20 18:30 45.60222 12.27819 35907 ft 507 kts 62°
2026-04-20 18:31 45.62853 12.37048 35913 ft 508 kts 62°
2026-04-20 18:31 45.65477 12.46304 35906 ft 507 kts 63°
2026-04-20 18:32 45.68087 12.55540 35913 ft 506 kts 62°
2026-04-20 18:32 45.70703 12.64829 35919 ft 508 kts 63°
2026-04-20 18:33 45.73332 12.74202 35915 ft 507 kts 63°
2026-04-20 18:33 45.75931 12.83507 35912 ft 507 kts 63°
2026-04-20 18:34 45.78520 12.92815 35915 ft 507 kts 64°
2026-04-20 18:34 45.81104 13.02138 35916 ft 507 kts 64°
2026-04-20 18:35 45.83670 13.11428 35927 ft 507 kts 63°
2026-04-20 18:35 45.86263 13.20853 35929 ft 508 kts 64°
2026-04-20 18:36 45.88806 13.30133 35926 ft 507 kts 64°
2026-04-20 18:36 45.91333 13.39388 35927 ft 508 kts 63°
2026-04-20 18:37 45.93874 13.48731 35931 ft 507 kts 64°
2026-04-20 18:37 45.96442 13.58215 35933 ft 509 kts 64°
2026-04-20 18:38 45.98895 13.67321 35929 ft 508 kts 64°
2026-04-20 18:38 46.01478 13.76981 35936 ft 509 kts 64°
2026-04-20 18:39 46.03986 13.86404 35933 ft 509 kts 64°
2026-04-20 18:39 46.06506 13.95911 35933 ft 509 kts 64°
2026-04-20 18:40 46.09013 14.05404 35946 ft 508 kts 64°
2026-04-20 18:40 46.11498 14.14847 35947 ft 511 kts 64°
2026-04-20 18:41 46.13994 14.24366 35941 ft 509 kts 64°
2026-04-20 18:41 46.16458 14.33808 35943 ft 509 kts 64°
2026-04-20 18:42 46.18930 14.43316 35946 ft 511 kts 64°
2026-04-20 18:42 46.21423 14.52944 35946 ft 510 kts 64°
2026-04-20 18:43 46.23886 14.62507 35947 ft 509 kts 64°
2026-04-20 18:43 46.26318 14.71987 35744 ft 507 kts 64°
2026-04-20 18:44 46.27533 14.76745 35558 ft 504 kts 64°
2026-04-20 18:44 46.28748 14.81504 35356 ft 509 kts 64°
2026-04-20 18:44 46.29970 14.86278 35151 ft 515 kts 64°
2026-04-20 18:44 46.31193 14.91080 34975 ft 513 kts 64°
2026-04-20 18:45 46.33611 15.00614 34955 ft 515 kts 64°
2026-04-20 18:45 46.36061 15.10307 34960 ft 517 kts 64°
2026-04-20 18:46 46.38479 15.19927 34953 ft 515 kts 64°
2026-04-20 18:46 46.40902 15.29612 34941 ft 517 kts 64°
2026-04-20 18:47 46.43312 15.39270 34962 ft 518 kts 64°
2026-04-20 18:47 46.45660 15.48721 34962 ft 519 kts 63°
2026-04-20 18:48 46.48048 15.58388 34973 ft 517 kts 63°
2026-04-20 18:48 46.50427 15.68053 34988 ft 519 kts 64°
2026-04-20 18:49 46.52823 15.77825 34990 ft 518 kts 64°
2026-04-20 18:49 46.55215 15.87614 34994 ft 521 kts 64°
2026-04-20 18:50 46.57615 15.97491 34996 ft 521 kts 64°
2026-04-20 18:50 46.59992 16.07319 34931 ft 520 kts 64°
2026-04-20 18:51 46.61185 16.12262 34749 ft 522 kts 64°
2026-04-20 18:51 46.62379 16.17224 34563 ft 523 kts 64°
2026-04-20 18:51 46.63568 16.22179 34271 ft 523 kts 64°
2026-04-20 18:51 46.64781 16.27245 33945 ft 525 kts 64°
2026-04-20 18:52 46.65957 16.32174 33637 ft 518 kts 64°
2026-04-20 18:52 46.67139 16.37149 33116 ft 515 kts 64°
2026-04-20 18:52 46.68296 16.42086 33009 ft 519 kts 65°
2026-04-20 18:52 46.69304 16.47095 33000 ft 528 kts 69°
2026-04-20 18:53 46.70996 16.57581 32998 ft 537 kts 71°
2026-04-20 18:53 46.72491 16.68057 33006 ft 535 kts 72°
2026-04-20 18:54 46.74000 16.78631 33002 ft 538 kts 72°
2026-04-20 18:54 46.75554 16.89245 33002 ft 537 kts 71°
2026-04-20 18:55 46.77128 16.99843 32990 ft 536 kts 71°
2026-04-20 18:55 46.78703 17.10422 33001 ft 536 kts 72°
2026-04-20 18:56 46.80274 17.21016 33000 ft 539 kts 72°
2026-04-20 18:56 46.81848 17.31719 33000 ft 535 kts 71°
2026-04-20 18:57 46.83654 17.42217 32992 ft 530 kts 64°
2026-04-20 18:57 46.86488 17.52027 32989 ft 519 kts 57°
2026-04-20 18:58 46.88038 17.56771 32874 ft 512 kts 56°
2026-04-20 18:58 46.89557 17.61421 32438 ft 507 kts 56°
2026-04-20 18:58 46.91045 17.66079 31852 ft 507 kts 58°
2026-04-20 18:58 46.92491 17.70738 31114 ft 513 kts 58°
2026-04-20 18:59 46.93916 17.75459 30262 ft 518 kts 59°
2026-04-20 18:59 46.95356 17.80351 29338 ft 523 kts 60°
2026-04-20 18:59 46.96779 17.85276 28355 ft 528 kts 61°
2026-04-20 18:59 46.98189 17.90222 27302 ft 533 kts 62°
2026-04-20 19:00 46.99603 17.95228 26195 ft 538 kts 63°
2026-04-20 19:00 47.01039 18.00344 24981 ft 541 kts 64°
2026-04-20 19:00 47.02430 18.05333 24083 ft 518 kts 64°
2026-04-20 19:00 47.03748 18.10101 23369 ft 500 kts 64°
2026-04-20 19:01 47.05053 18.14820 22565 ft 496 kts 64°
2026-04-20 19:01 47.06340 18.19466 21790 ft 491 kts 64°
2026-04-20 19:01 47.07628 18.24109 21027 ft 487 kts 64°
2026-04-20 19:01 47.08888 18.28653 20259 ft 483 kts 64°
2026-04-20 19:02 47.10155 18.33224 19473 ft 470 kts 64°
2026-04-20 19:02 47.11377 18.37635 18749 ft 465 kts 65°
2026-04-20 19:02 47.12585 18.41990 18053 ft 461 kts 65°
2026-04-20 19:02 47.13777 18.46296 17318 ft 457 kts 64°
2026-04-20 19:03 47.14980 18.50645 16538 ft 450 kts 64°
2026-04-20 19:03 47.16134 18.54835 15811 ft 439 kts 64°
2026-04-20 19:03 47.17252 18.58915 15120 ft 427 kts 64°
2026-04-20 19:03 47.18352 18.62935 14426 ft 417 kts 64°
2026-04-20 19:04 47.19409 18.66809 13752 ft 406 kts 64°
2026-04-20 19:04 47.20463 18.70667 13077 ft 409 kts 64°
2026-04-20 19:04 47.21534 18.74581 12367 ft 407 kts 64°
2026-04-20 19:04 47.22575 18.78406 11670 ft 397 kts 64°
2026-04-20 19:05 47.23580 18.82117 11013 ft 388 kts 64°
2026-04-20 19:05 47.24583 18.85821 10568 ft 389 kts 64°
2026-04-20 19:05 47.25594 18.89550 10495 ft 394 kts 64°
2026-04-20 19:05 47.26615 18.93324 10370 ft 396 kts 64°
2026-04-20 19:06 47.27637 18.97111 10188 ft 394 kts 64°
2026-04-20 19:06 47.28641 19.00844 9912 ft 395 kts 64°
2026-04-20 19:06 47.29637 19.04561 9382 ft 382 kts 64°
2026-04-20 19:06 47.30590 19.08136 8954 ft 361 kts 64°
2026-04-20 19:07 47.31484 19.11494 8492 ft 344 kts 64°
2026-04-20 19:07 47.32338 19.14698 8129 ft 327 kts 64°
2026-04-20 19:07 47.33055 19.17810 7686 ft 319 kts 72°
2026-04-20 19:07 47.33249 19.21017 7449 ft 309 kts 96°
2026-04-20 19:08 47.32535 19.23915 7200 ft 298 kts 123°
2026-04-20 19:08 47.29785 19.28373 6509 ft 290 kts 134°
2026-04-20 19:08 47.28404 19.30499 6164 ft 278 kts 133°
2026-04-20 19:09 47.27124 19.32514 5856 ft 264 kts 132°
2026-04-20 19:09 47.25903 19.34466 5547 ft 252 kts 131°
2026-04-20 19:09 47.24776 19.36364 5313 ft 237 kts 125°
2026-04-20 19:09 47.24041 19.38401 5241 ft 216 kts 100°
2026-04-20 19:10 47.24041 19.40524 5146 ft 202 kts 65°
2026-04-20 19:10 47.24766 19.42189 4950 ft 194 kts 43°
2026-04-20 19:10 47.25477 19.43906 4693 ft 200 kts 71°
2026-04-20 19:10 47.25401 19.45948 4545 ft 207 kts 110°
2026-04-20 19:11 47.24536 19.47671 4535 ft 210 kts 135°
2026-04-20 19:11 47.23476 19.49154 4617 ft 211 kts 135°
2026-04-20 19:11 47.22498 19.50720 4571 ft 204 kts 124°
2026-04-20 19:11 47.22012 19.52628 4474 ft 200 kts 84°
2026-04-20 19:12 47.22419 19.54486 4399 ft 189 kts 41°
2026-04-20 19:12 47.23534 19.55276 4322 ft 176 kts 358°
2026-04-20 19:12 47.24773 19.55135 4288 ft 175 kts 347°
2026-04-20 19:12 47.25925 19.54579 4234 ft 173 kts 331°
2026-04-20 19:13 47.26937 19.53701 4165 ft 168 kts 320°
2026-04-20 19:13 47.27798 19.52485 4131 ft 170 kts 314°
2026-04-20 19:13 47.28627 19.51211 4124 ft 173 kts 314°
2026-04-20 19:13 47.29445 19.49930 4124 ft 172 kts 314°
2026-04-20 19:14 47.30277 19.48610 3970 ft 175 kts 313°
2026-04-20 19:14 47.31092 19.47311 3700 ft 172 kts 313°
2026-04-20 19:14 47.31900 19.46022 3443 ft 170 kts 313°
2026-04-20 19:14 47.32717 19.44717 3203 ft 172 kts 313°
2026-04-20 19:15 47.33520 19.43433 2973 ft 169 kts 313°
2026-04-20 19:15 47.34312 19.42168 2739 ft 169 kts 313°
2026-04-20 19:15 47.35108 19.40894 2512 ft 167 kts 313°
2026-04-20 19:15 47.35893 19.39638 2280 ft 168 kts 313°
2026-04-20 19:16 47.36688 19.38365 2050 ft 165 kts 313°
2026-04-20 19:16 47.37434 19.37171 1861 ft 146 kts 313°
2026-04-20 19:16 47.38090 19.36121 1609 ft 135 kts 313°
2026-04-20 19:16 47.38709 19.35126 1487 ft 130 kts 313°
2026-04-20 19:17 47.39329 19.34134 1279 ft 129 kts 312°
2026-04-20 19:17 47.39936 19.33159 1124 ft 130 kts 312°
2026-04-20 19:17 47.40554 19.32171 943 ft 129 kts 312°
2026-04-20 19:17 47.41157 19.31202 753 ft 130 kts 312°
2026-04-20 19:18 47.41779 19.30230 569 ft 129 kts 311°
2026-04-20 19:18 47.42392 19.29243 428 ft 131 kts 311°
2026-04-20 19:18 47.42912 19.28392 424 ft 76 kts 311°
2026-04-20 19:18 47.43169 19.27967 436 ft 49 kts 313°
2026-04-20 19:19 47.43329 19.27618 446 ft 25 kts 289°
2026-04-20 19:19 47.43369 19.27418 451 ft 16 kts 284°
2026-04-20 19:19 47.43388 19.27303 453 ft 6 kts 281°
2026-04-20 19:19 47.43396 19.27250 454 ft 4 kts 282°
2026-04-20 19:20 47.43406 19.27172 456 ft 11 kts 279°
2026-04-20 19:20 47.43426 19.27042 461 ft 9 kts 290°
2026-04-20 19:20 47.43435 19.27009 463 ft 6 kts 291°
2026-04-20 19:20 47.43475 19.26916 466 ft 15 kts 305°
2026-04-20 19:21 47.43569 19.26767 470 ft 24 kts 313°
2026-04-20 19:21 47.43689 19.26567 474 ft 25 kts 309°
2026-04-20 19:21 47.43749 19.26468 475 ft 7 kts 311°
2026-04-20 19:21 47.43798 19.26387 476 ft 16 kts 311°
2026-04-20 19:22 47.43893 19.26214 477 ft 14 kts 298°
2026-04-20 19:22 47.43874 19.26098 478 ft 11 kts 231°
2026-04-20 19:22 47.43814 19.26019 477 ft 12 kts 219°
2026-04-20 19:22 47.43716 19.26003 475 ft 19 kts 138°
2026-04-20 19:23 47.43631 19.26033 474 ft 11 kts 229°
2026-04-20 19:23 47.43640 19.25968 474 ft 4 kts 316°
2026-04-20 19:23 47.43649 19.25954 474 ft 1 kts 312°
2026-04-20 19:23 47.43651 19.25951 474 ft 0 kts 312°